Temperature
8 8 8 8 8 8 8 8 8 8 8 8 8 8 7 7 7 6 6 6 6 5 5 5 5 4 4 4 3 3 3 2 2 3 3 3 3 3 3 3 2 2 2
7 7 8 8 8 7 7 7 7 8 8 7 7 7 7 6 6 6 6 5 5 5 5 4 4 4 4 3 3 3 3 2 2 2 3 3 3 2 2 2 2 2 2
6 7 7 7 7 7 7 7 7 7 7 7 7 6 6 6 6 5 5 5 4 4 4 4 4 4 3 3 3 3 3 2 2 2 2 2 2 2 2 2 2 2 1
6 6 6 6 6 6 6 6 6 6 6 6 6 6 6 5 5 5 4 4 4 4 3 3 3 3 3 3 2 2 2 2 2 2 2 2 2 1 1 1 1 1 1
5 5 6 6 6 6 6 6 6 5 5 5 5 5 5 5 4 4 4 3 3 3 3 3 3 3 3 2 2 2 2 2 2 1 1 1 1 1 0 0 0 0 1
4 5 5 5 5 5 5 5 5 5 5 5 5 4 4 4 4 4 3 3 3 2 2 2 2 2 2 2 2 2 2 1 1 1 1 0 0 0 -0 -0 -1 -1 -1
4 4 4 4 4 4 4 4 4 4 4 4 4 4 4 3 3 3 3 2 2 2 2 2 2 2 2 2 2 2 1 1 1 1 0 0 -0 -0 -0 -1 -1 -1 -1
3 3 3 3 3 4 3 3 3 3 3 3 3 3 3 3 3 2 2 2 2 2 2 2 1 1 1 1 1 1 1 1 1 0 0 -0 -0 -0 -1 -1 -1 -1 -1
2 2 3 3 3 3 3 3 3 2 2 2 2 2 2 2 2 2 2 1 2 2 1 1 1 1 1 1 1 1 1 1 1 0 0 -0 -0 -0 -1 -1 -1 -2 -2
2 2 2 2 2 2 2 2 2 2 2 2 2 2 2 2 1 1 1 1 1 1 1 1 1 1 1 0 0 0 0 0 0 0 0 -0 -0 -1 -1 -1 -2 -2 -3
1 1 1 1 1 1 1 1 1 1 1 1 1 1 1 1 1 1 1 1 0 0 0 0 0 0 0 0 -0 -0 -0 -0 -0 -0 -0 -0 -1 -1 -1 -2 -2 -2 -3
-0 0 0 0 0 0 1 1 0 0 0 0 0 0 0 0 0 0 0 -0 -0 -0 -0 -0 -0 -0 -0 -0 -0 -0 -0 -1 -1 -1 -1 -1 -1 -1 -1 -2 -2 -2 -2
-1 -0 -0 -0 -0 -0 -0 -0 -0 -0 -0 -1 -1 -1 -1 -1 -1 -1 -1 -1 -1 -1 -1 -1 -1 -1 -1 -1 -1 -1 -1 -1 -1 -1 -1 -1 -1 -2 -2 -2 -2 -2 -2
-1 -1 -1 -1 -1 -1 -1 -1 -1 -1 -1 -1 -1 -1 -1 -1 -1 -1 -1 -1 -1 -2 -1 -1 -1 -1 -1 -1 -1 -1 -1 -1 -2 -2 -2 -2 -2 -2 -2 -2 -2 -2 -2
-2 -2 -2 -2 -2 -2 -2 -2 -2 -1 -1 -2 -2 -2 -2 -2 -2 -2 -2 -2 -2 -2 -2 -2 -2 -2 -2 -1 -2 -2 -2 -2 -2 -2 -2 -2 -2 -2 -2 -2 -2 -3 -3
-3 -2 -2 -2 -2 -2 -2 -2 -2 -2 -2 -2 -2 -2 -2 -2 -2 -2 -2 -2 -2 -2 -2 -2 -2 -2 -2 -2 -2 -2 -2 -2 -2 -2 -3 -3 -3 -3 -3 -3 -3 -3 -3
-3 -3 -3 -3 -3 -3 -3 -3 -2 -3 -3 -3 -2 -2 -3 -3 -3 -3 -3 -3 -3 -3 -3 -3 -3 -3 -3 -3 -3 -3 -3 -3 -3 -3 -3 -3 -3 -3 -3 -3 -3 -3 -3
-4 -4 -4 -3 -3 -3 -3 -3 -3 -3 -3 -3 -3 -3 -3 -3 -3 -3 -3 -3 -3 -3 -3 -3 -3 -3 -3 -3 -3 -3 -3 -3 -3 -3 -3 -3 -3 -4 -3 -3 -3 -3 -3
-4 -4 -4 -4 -4 -4 -4 -4 -4 -4 -4 -4 -4 -4 -4 -4 -4 -4 -4 -4 -3 -4 -4 -4 -4 -3 -4 -4 -4 -4 -4 -4 -4 -4 -4 -4 -4 -4 -4 -4 -3 -3 -3
-4 -4 -4 -4 -4 -4 -4 -4 -4 -4 -4 -4 -4 -4 -4 -4 -4 -4 -4 -4 -4 -4 -4 -4 -4 -4 -4 -4 -4 -4 -4 -4 -4 -4 -4 -4 -4 -4 -4 -4 -4 -3 -4
-5 -5 -5 -5 -5 -5 -5 -5 -5 -5 -5 -5 -5 -5 -5 -5 -5 -5 -4 -4 -4 -4 -4 -4 -4 -4 -4 -4 -4 -4 -4 -4 -4 -4 -4 -4 -4 -4 -4 -4 -4 -4 -4
-5 -5 -5 -5 -5 -5 -5 -5 -5 -5 -5 -5 -5 -5 -5 -5 -5 -5 -5 -5 -5 -5 -5 -5 -5 -4 -4 -4 -4 -4 -4 -4 -4 -4 -4 -4 -4 -4 -4 -4 -4 -4 -4
-6 -6 -6 -6 -6 -6 -6 -5 -6 -5 -5 -5 -5 -5 -5 -5 -5 -5 -5 -5 -5 -5 -5 -5 -5 -5 -5 -5 -5 -5 -5 -5 -4 -4 -4 -4 -4 -4 -4 -4 -4 -4 -4
-6 -6 -6 -6 -6 -6 -6 -6 -6 -6 -6 -6 -6 -6 -6 -6 -6 -6 -6 -6 -5 -5 -5 -5 -5 -5 -5 -5 -5 -5 -5 -5 -4 -4 -4 -4 -4 -4 -4 -4 -4 -4 -4
-6 -6 -6 -6 -6 -6 -6 -6 -6 -6 -6 -6 -6 -6 -6 -6 -6 -6 -6 -6 -6 -6 -6 -6 -5 -5 -5 -5 -5 -5 -5 -5 -4 -4 -4 -4 -4 -4 -4 -4 -4 -4 -4
-7 -7 -7 -7 -7 -7 -7 -7 -7 -7 -7 -6 -6 -6 -6 -6 -6 -6 -6 -6 -6 -6 -6 -6 -5 -5 -5 -5 -5 -5 -5 -5 -4 -4 -4 -4 -4 -4 -4 -4 -4 -4 -4
Wind_Speed
3 4 4 4 4 5 5 6 6 6 6 6 6 6 5 5 5 4 3 3 3 3 2 3 3 3 3 3 3 4 5 6 8 9 8 9 10 11 11 12 13 13 12
2 3 3 4 4 5 5 5 6 6 6 6 6 6 5 5 5 5 4 4 4 3 3 3 4 3 4 4 4 5 5 6 8 11 9 9 10 10 11 12 12 12 12
2 3 3 4 4 5 5 5 5 5 5 5 5 6 5 5 5 4 4 4 4 4 3 4 4 4 5 4 5 5 6 6 7 8 10 8 8 9 10 11 11 10 11
2 3 2 3 4 4 4 4 5 5 5 5 5 5 5 4 4 4 4 4 4 3 3 4 4 5 5 6 5 6 6 7 7 8 8 8 8 9 9 9 10 10 10
3 2 2 2 3 3 4 4 4 4 3 3 4 4 4 3 3 4 4 4 3 3 4 4 4 5 6 6 6 6 6 6 6 7 8 8 8 8 8 8 10 11 11
3 2 2 3 3 3 4 4 4 3 3 3 3 3 3 2 2 3 3 4 4 4 4 4 4 5 6 8 8 8 8 7 7 7 7 8 9 9 9 9 9 10 8
2 3 3 3 3 4 4 4 4 3 3 3 3 3 2 2 2 2 2 3 4 3 4 4 4 4 6 6 7 8 8 9 9 8 9 9 10 9 9 10 9 10 10
2 2 2 3 3 4 4 4 4 3 3 3 3 2 2 1 1 1 2 3 3 3 3 4 4 5 5 6 7 7 7 7 8 7 8 9 9 9 8 9 10 10 10
2 2 2 2 3 3 4 4 4 3 3 3 2 2 2 1 1 0 1 2 2 2 3 3 4 4 6 7 6 7 7 7 7 9 10 11 11 11 9 6 7 7 8
1 1 2 2 2 3 3 3 3 3 3 3 2 2 1 1 1 0 2 1 1 2 3 3 4 5 6 7 6 6 7 8 8 8 8 8 8 7 8 6 6 6 7
1 1 2 2 2 3 3 3 3 4 3 3 2 2 1 1 0 0 2 1 2 2 2 3 3 5 6 6 6 5 7 8 7 7 7 7 6 6 6 6 6 5 6
1 2 2 2 2 3 4 3 3 4 4 3 2 1 1 1 1 1 2 2 3 2 3 3 3 5 6 6 5 6 7 7 4 5 6 6 6 6 6 7 7 7 7
2 2 2 2 2 3 3 4 3 3 3 2 2 1 1 0 1 2 2 3 3 3 3 4 5 4 5 4 5 6 5 4 4 5 6 6 6 7 7 7 7 7 8
2 1 2 2 2 2 2 2 3 3 2 2 2 1 1 0 1 2 2 2 3 3 3 3 3 3 3 4 4 4 4 4 4 4 5 6 6 6 6 6 6 7 6
2 1 1 2 2 2 2 2 2 2 2 2 2 1 1 1 1 3 3 3 3 3 3 2 2 2 3 3 3 4 4 4 5 5 5 6 6 6 6 6 6 6 6
2 1 1 1 2 2 2 2 2 1 2 1 1 1 1 1 2 2 3 4 4 4 2 2 2 2 3 3 4 4 4 4 5 5 5 5 6 6 6 6 6 6 6
2 2 1 2 2 2 2 2 2 2 2 2 2 1 1 1 1 2 3 3 3 2 2 2 2 2 3 3 3 4 4 5 5 5 5 6 6 6 6 6 7 6 7
2 2 2 2 2 2 2 2 2 2 1 1 1 1 1 1 2 2 2 2 1 1 2 2 3 3 3 3 3 4 4 5 5 5 5 5 6 6 6 6 6 7 7
2 2 2 2 2 2 2 2 2 2 1 1 0 0 1 1 1 2 2 1 1 2 2 2 3 3 3 3 3 4 4 4 5 5 5 6 5 6 6 6 6 8 7
2 2 2 2 2 2 2 2 2 2 1 1 0 0 0 1 1 1 2 2 2 2 2 3 3 3 3 3 3 3 4 4 5 5 5 5 5 5 6 7 6 6 6
2 2 3 2 2 2 2 2 1 1 1 1 0 0 1 1 1 1 1 2 2 2 3 3 3 3 3 3 3 4 4 4 4 5 5 5 5 5 5 5 6 6 6
2 2 2 2 2 2 2 1 1 1 1 1 0 0 1 1 1 1 2 2 3 3 3 3 3 4 4 4 4 4 4 4 5 5 5 5 5 5 5 5 5 5 5
2 3 2 2 2 2 2 1 1 1 1 1 1 1 1 1 1 2 2 3 3 3 4 4 4 4 5 5 6 5 5 5 5 6 6 5 5 5 5 5 5 6 5
2 3 3 2 2 2 1 1 1 1 1 1 1 1 1 1 2 2 2 3 3 4 4 4 5 5 7 7 6 6 6 8 8 7 6 5 5 5 4 4 4 5 5
2 2 2 2 2 2 1 1 1 1 1 1 1 1 1 2 2 2 2 3 4 4 5 5 5 6 7 7 7 7 8 9 8 7 6 5 4 4 4 4 3 4 4
2 2 2 2 2 2 1 1 1 1 1 1 1 1 2 2 2 2 3 3 3 4 4 5 6 7 8 8 8 8 8 8 7 7 5 4 3 3 3 3 3 3 3
Wind_Direction
180 179 178 178 177 180 182 181 176 176 176 178 179 180 182 182 180 186 194 196 210 224 233 243 259 275 278 276 279 277 276 280 282 291 297 306 308 308 313 313 313 313 313
164 165 166 164 166 173 176 174 172 174 175 178 180 183 185 187 187 191 196 204 213 224 238 252 265 272 276 283 281 278 277 278 283 292 300 308 309 311 314 313 314 313 312
142 140 148 160 166 171 170 168 167 171 173 176 182 186 186 190 193 200 204 212 220 231 239 253 266 272 276 282 288 286 283 284 285 289 298 307 309 315 316 313 315 316 314
132 132 144 161 168 164 159 161 164 169 174 177 182 184 186 191 195 203 212 218 228 239 248 257 263 269 277 285 286 290 293 292 291 291 296 305 310 317 318 318 318 319 316
127 129 141 144 144 148 151 153 151 154 162 168 173 174 176 185 198 210 217 224 233 247 259 264 269 280 289 290 290 293 295 293 294 296 299 305 310 318 318 318 314 317 315
129 128 123 133 136 140 144 146 142 143 151 154 161 163 168 176 189 215 226 229 234 247 261 271 279 280 287 291 294 297 296 294 297 296 296 300 304 310 314 313 314 318 316
125 121 126 131 136 135 137 142 142 148 151 153 150 157 167 171 187 216 245 245 242 251 263 275 285 289 291 293 295 294 292 293 294 295 292 295 301 306 309 309 310 310 305
127 125 121 130 136 137 138 143 144 150 154 153 149 152 161 162 164 242 273 251 254 262 271 278 284 293 297 305 303 301 300 297 296 293 293 297 300 302 300 300 303 303 302
126 123 124 127 135 143 145 147 150 151 151 151 148 149 142 142 135 206 300 263 266 279 290 288 290 296 311 318 311 305 305 310 305 297 297 297 300 301 306 308 311 316 314
121 124 119 129 144 155 153 148 147 146 143 138 128 134 129 125 124 206 314 288 286 298 298 298 299 311 318 319 313 309 308 313 316 316 312 308 306 306 309 307 307 311 315
91 106 109 124 137 147 141 138 142 139 137 132 129 122 104 89 98 340 350 332 309 301 299 301 308 321 323 321 319 312 315 318 313 313 313 315 319 320 323 321 315 302 299
93 98 98 113 123 138 135 137 142 143 139 134 130 114 87 73 21 357 350 343 328 297 293 300 312 323 324 321 321 326 328 327 320 318 316 318 321 322 323 322 315 305 294
103 100 101 109 115 135 143 146 144 147 144 145 147 144 126 27 18 9 349 333 328 315 305 311 316 320 321 322 334 335 334 333 326 321 318 317 320 320 323 324 322 320 311
121 108 107 112 115 127 137 150 156 160 158 158 165 171 180 296 357 353 341 337 337 335 329 328 331 338 334 336 337 338 337 332 324 320 319 321 325 327 328 328 325 328 326
137 130 129 134 141 139 142 153 169 175 181 184 187 195 206 248 323 336 333 327 326 326 327 321 327 332 337 341 339 339 338 335 332 331 327 325 326 330 330 331 327 327 326
155 157 158 160 157 154 147 126 92 119 117 115 133 206 237 281 319 329 333 331 332 334 323 309 315 325 328 328 327 329 329 328 327 327 324 325 326 328 329 331 332 330 329
182 189 182 182 179 175 168 162 148 110 103 102 97 81 32 352 348 336 333 330 336 336 313 300 302 309 315 315 317 318 319 322 322 322 323 326 326 327 327 329 333 332 329
187 185 189 193 189 185 178 172 169 172 169 119 75 76 54 31 10 351 337 330 326 336 312 303 304 309 311 311 314 316 318 322 324 323 324 323 325 326 325 327 329 330 327
192 183 183 189 192 185 172 168 166 169 172 167 77 81 56 33 22 22 13 350 314 305 307 307 306 309 307 307 309 312 313 314 318 319 319 321 324 326 325 326 326 328 329
193 182 193 188 175 167 165 166 167 168 170 177 196 277 342 350 2 4 0 351 335 318 313 308 309 309 306 305 307 310 312 313 317 317 317 320 322 323 322 323 326 327 328
185 176 172 166 165 167 168 168 170 172 173 182 218 330 345 303 296 311 321 325 319 316 314 311 309 307 305 305 306 308 310 309 311 312 314 318 320 322 322 320 323 327 329
168 163 161 160 159 163 163 161 164 170 172 176 196 342 348 306 293 296 303 310 315 313 310 307 305 305 305 304 303 304 303 305 309 312 313 316 319 320 321 323 326 330 332
161 156 152 152 156 161 155 147 153 167 190 203 218 245 262 281 290 296 305 312 313 310 312 310 306 307 309 307 303 298 294 297 304 306 308 310 316 318 318 321 325 329 334
159 157 156 157 162 161 150 144 148 176 215 234 243 253 267 280 288 296 303 308 309 310 311 310 306 306 310 311 308 302 299 302 305 302 301 302 306 310 313 317 322 328 331
160 159 160 164 164 157 151 150 161 202 235 248 255 264 276 282 287 296 302 305 307 307 310 310 308 307 309 311 311 309 309 311 312 309 303 301 303 308 313 319 326 333 337
163 160 162 168 169 166 168 177 196 220 246 269 276 278 280 283 289 297 302 304 305 307 309 308 308 310 310 312 312 312 314 318 319 318 313 306 309 312 316 321 332 339 337
Height
1496 1498 1501 1503 1506 1508 1510 1513 1515 1516 1518 1519 1520 1521 1522 1523 1523 1524 1524 1524 1523 1523 1522 1521 1520 1520 1518 1517 1515 1513 1511 1509 1505 1500 1497 1494 1490 1487 1482 1479 1474 1470 1465
1493 1495 1497 1499 1502 1504 1507 1509 1511 1513 1515 1516 1517 1518 1518 1519 1520 1520 1520 1520 1520 1519 1519 1518 1517 1516 1515 1513 1512 1510 1507 1505 1502 1497 1493 1490 1487 1483 1479 1475 1470 1466 1461
1490 1491 1494 1496 1498 1501 1503 1505 1507 1509 1511 1512 1513 1514 1515 1516 1516 1516 1517 1517 1516 1516 1515 1515 1514 1513 1511 1510 1508 1506 1504 1501 1498 1495 1490 1487 1483 1479 1475 1471 1467 1462 1458
1487 1489 1491 1493 1495 1497 1499 1501 1503 1505 1506 1508 1509 1510 1511 1512 1513 1513 1513 1513 1513 1512 1512 1511 1510 1509 1508 1506 1505 1503 1500 1498 1495 1491 1487 1483 1479 1476 1471 1466 1461 1458 1454
1484 1486 1488 1490 1492 1494 1496 1498 1499 1501 1502 1504 1505 1506 1507 1508 1509 1509 1510 1510 1509 1509 1508 1508 1507 1506 1504 1503 1501 1499 1497 1494 1491 1488 1484 1479 1476 1471 1468 1463 1459 1454 1450
1482 1483 1485 1487 1488 1490 1492 1494 1495 1497 1499 1500 1501 1503 1504 1504 1505 1506 1506 1506 1506 1505 1505 1504 1503 1502 1501 1499 1498 1496 1494 1491 1487 1484 1480 1477 1473 1469 1465 1461 1456 1451 1446
1479 1481 1482 1484 1485 1487 1489 1491 1492 1494 1496 1497 1498 1499 1500 1501 1502 1502 1503 1503 1503 1502 1501 1500 1499 1498 1497 1495 1493 1491 1489 1487 1484 1481 1477 1474 1470 1467 1462 1458 1454 1450 1445
1477 1478 1480 1482 1483 1485 1486 1488 1490 1492 1493 1494 1495 1496 1497 1498 1498 1499 1500 1500 1499 1499 1498 1497 1496 1495 1493 1491 1490 1487 1485 1482 1480 1477 1474 1471 1467 1464 1460 1457 1452 1447 1443
1475 1477 1478 1480 1481 1482 1484 1486 1487 1489 1490 1491 1492 1493 1494 1495 1495 1496 1496 1496 1496 1495 1495 1494 1493 1491 1490 1488 1486 1484 1481 1478 1476 1474 1471 1468 1464 1461 1458 1454 1449 1445 1440
1474 1475 1476 1478 1479 1481 1482 1484 1485 1487 1488 1489 1490 1490 1491 1492 1492 1493 1493 1493 1492 1492 1491 1490 1489 1488 1487 1485 1483 1480 1477 1475 1472 1469 1467 1464 1461 1458 1455 1452 1448 1443 1438
1473 1474 1475 1476 1477 1479 1480 1482 1483 1484 1485 1486 1487 1488 1489 1489 1489 1490 1490 1490 1489 1489 1488 1487 1486 1485 1483 1482 1480 1478 1475 1472 1469 1466 1463 1461 1458 1455 1452 1449 1445 1442 1438
1472 1473 1473 1474 1476 1477 1478 1479 1481 1482 1483 1484 1485 1485 1486 1486 1487 1487 1487 1487 1487 1486 1485 1484 1483 1482 1480 1479 1477 1475 1472 1470 1467 1464 1461 1458 1455 1452 1449 1446 1443 1440 1437
1471 1471 1472 1473 1474 1475 1476 1477 1479 1480 1481 1482 1482 1483 1483 1484 1484 1484 1484 1484 1484 1483 1482 1481 1480 1479 1478 1476 1474 1472 1469 1467 1464 1461 1458 1456 1453 1450 1447 1444 1440 1437 1434
1469 1470 1470 1471 1472 1473 1475 1476 1477 1478 1479 1479 1480 1480 1481 1481 1482 1482 1481 1481 1481 1480 1479 1479 1478 1476 1475 1474 1472 1470 1467 1465 1462 1459 1456 1454 1451 1448 1445 1441 1438 1435 1431
1467 1468 1469 1470 1471 1472 1473 1474 1475 1476 1477 1477 1478 1478 1478 1478 1479 1479 1479 1478 1478 1477 1477 1476 1475 1474 1472 1471 1469 1467 1465 1463 1460 1457 1454 1452 1449 1446 1443 1440 1437 1434 1430
1465 1466 1467 1468 1469 1470 1471 1472 1473 1474 1474 1475 1476 1476 1476 1477 1476 1476 1476 1476 1475 1475 1474 1473 1472 1471 1469 1468 1466 1464 1463 1460 1458 1456 1453 1450 1447 1444 1441 1439 1436 1433 1429
1464 1464 1465 1466 1467 1468 1469 1469 1470 1472 1472 1473 1473 1474 1474 1474 1474 1474 1474 1473 1473 1472 1471 1470 1470 1469 1467 1466 1464 1462 1460 1458 1456 1454 1451 1448 1446 1443 1440 1437 1435 1432 1429
1462 1462 1463 1464 1465 1466 1467 1468 1468 1469 1470 1470 1471 1471 1472 1471 1471 1471 1471 1471 1471 1470 1469 1468 1468 1467 1465 1464 1462 1460 1459 1457 1455 1453 1450 1447 1445 1442 1439 1437 1434 1431 1428
1460 1460 1462 1463 1463 1464 1465 1466 1467 1467 1468 1468 1469 1469 1469 1469 1469 1469 1469 1469 1468 1468 1467 1466 1466 1465 1463 1462 1460 1458 1457 1455 1453 1451 1449 1446 1444 1441 1439 1436 1434 1431 1429
1458 1459 1460 1461 1461 1462 1463 1464 1465 1466 1466 1466 1467 1467 1467 1467 1467 1467 1467 1466 1466 1465 1465 1464 1463 1462 1461 1460 1458 1457 1455 1453 1452 1450 1448 1445 1443 1441 1438 1436 1434 1431 1429
1455 1456 1458 1459 1460 1460 1461 1462 1463 1464 1464 1465 1465 1465 1465 1465 1464 1464 1465 1464 1464 1463 1463 1462 1461 1460 1459 1458 1456 1455 1453 1452 1450 1448 1446 1444 1442 1440 1438 1436 1434 1431 1429
1454 1455 1456 1457 1458 1459 1460 1461 1461 1462 1463 1463 1463 1463 1463 1463 1463 1463 1463 1462 1462 1462 1461 1460 1459 1458 1457 1456 1455 1453 1452 1450 1449 1447 1445 1443 1442 1440 1438 1436 1434 1432 1430
1453 1454 1455 1455 1456 1457 1458 1459 1460 1460 1461 1461 1461 1462 1462 1462 1461 1461 1461 1460 1460 1459 1459 1458 1457 1456 1455 1454 1453 1452 1450 1449 1448 1446 1444 1443 1441 1439 1437 1436 1434 1432 1430
1452 1452 1453 1454 1455 1456 1456 1457 1458 1459 1459 1460 1460 1460 1460 1460 1460 1459 1459 1458 1458 1457 1457 1456 1455 1454 1453 1452 1451 1450 1449 1448 1447 1445 1444 1442 1440 1439 1437 1435 1434 1432 1431
1451 1451 1452 1453 1454 1455 1455 1456 1457 1458 1458 1458 1458 1458 1458 1458 1458 1457 1457 1456 1456 1455 1455 1454 1453 1452 1451 1450 1450 1449 1448 1447 1446 1444 1443 1441 1440 1439 1437 1435 1434 1433 1432
1450 1451 1451 1452 1453 1454 1454 1455 1456 1456 1456 1456 1456 1456 1456 1456 1456 1455 1455 1454 1454 1453 1453 1452 1452 1451 1450 1449 1448 1447 1446 1445 1444 1443 1442 1441 1440 1438 1437 1436 1435 1433 1432